Regional Weather Roundup
Issued by NWS

Home | Current Version | Previous Version | Text Only | Print | Product List | Glossary On
Versions: 1 2 3 4 5 6 7 8 9 10 11 12 13 14 15 16 17 18 19 20 21 22 23 24 25 26 27 28 29 30 31 32 33 34 35 36 37 38 39 40 41 42 43 44 45 46 47 48 49 50
000
ASHW40 PHFO 281230
RWRHI

WEATHER ROUNDUP FOR HAWAII
NATIONAL WEATHER SERVICE HONOLULU HI
200 AM HST TUE APR 28 2015

THIS IS AN AUTOMATED REPORT THAT HAS NOT BEEN QUALITY CONTROLLED.

NOTE..."FAIR" INDICATES FEW OR NO CLOUDS BELOW 12,000 FEET WITH NO
SIGNIFICANT WEATHER AND/OR OBSTRUCTIONS TO VISIBILITY.

* - THESE SITES REPORT LIMITED FIELDS

HIZ001>004-281300-
KAUAI-NIIHAU-

CITY           SKY/WX    TMP DP  RH WIND       PRES   REMARKS
LIHUE APT      CLOUDY    73  67  81 NE23      30.12F
PORT ALLEN*      N/A     73 N/A N/A NE10G16     N/A
POIPU*           N/A     73 N/A N/A NE10G24     N/A
PRINCEVILLE*     N/A     72 N/A N/A MISG        N/A
KOKOLE POINT*  NOT AVBL
MOLOAA DAIRY*  NOT AVBL
WAIMEA HTS*    NOT AVBL
PUU OPAE*      NOT AVBL
PUU LUA*       NOT AVBL
MAKAHA RIDGE*    N/A     66  61  82 E3          N/A
$$

HIZ005>011-281300-
OAHU-

CITY           SKY/WX    TMP DP  RH WIND       PRES   REMARKS
HONOLULU       LGT RAIN  70  68  93 E6        30.06F
KALAELOA       CLOUDY    72  67  84 VRB5      30.08F
KANEOHE MCB    CLOUDY    75  68  78 NE14G23   30.05F
WHEELER FIELD  RAIN      68  66  94 W6        30.07  FOG
BELLOWS*         N/A    N/A N/A N/A NE22        N/A
KAHUKU*          N/A    N/A N/A N/A NE8G20      N/A
WHEELER*       NOT AVBL
WAIANAE HARBOR NOT AVBL
DILLINGHAM*      N/A     72  66  83 MISG        N/A
KAHUKU TRN*      N/A     77  72  83 E9G24       N/A
KAWAILOA*        N/A     68  66  94 NE15G28     N/A
KII*             N/A     75  68  78 NE18G26     N/A
MAKUA RANGE*     N/A     73  66  78 E12G18      N/A
OAHU FOREST NW NOT AVBL
SCHOFIELD BRK*   N/A     68  66  94 MISG        N/A
SCHOFIELD S*   NOT AVBL
WAIANAE VLY*   NOT AVBL
KUAOKALA*      NOT AVBL
HONOULIUULI*   NOT AVBL
MOKUOLOE IS*     N/A    N/A N/A N/A MISG        N/A
PALEHUA*       NOT AVBL
WAIAWA PHB*    NOT AVBL
$$

HIZ012>013-281300-
MOLOKAI-

CITY           SKY/WX    TMP DP  RH WIND       PRES   REMARKS
MOLOKAI AIRPT  CLOUDY    72  68  88 NE15G23   30.05F
KALAUPAPA      NOT AVBL
MAKAPULAPAI*   NOT AVBL
MOLOKAI 1*     NOT AVBL
PUU ALII*        N/A     59  59 100 CALM        N/A
$$

HIZ016-281300-
KAHOOLAWE-

CITY           SKY/WX    TMP DP  RH WIND       PRES   REMARKS
KAHOOLAWE*     NOT AVBL
HAKIOAWA*        N/A     68  67  97 MISG      30.45F
HONOKANAIA*      N/A     75  68  77 N10G26    30.06F
KANELOA*         N/A     72  70  94 MISG      29.29
KEALIALALO*      N/A     70  66  88 NE5G22    30.04F
LUA MAKIKA*    NOT AVBL
$$

HIZ014>015-281300-
LANAI-

CITY           SKY/WX    TMP DP  RH WIND       PRES   REMARKS
LANAI CITY     CLOUDY    69  66  90 NE14      30.09F
LANAI 1*       NOT AVBL
$$

HIZ017>028-281300-
MAUI-

CITY           SKY/WX    TMP DP  RH WIND       PRES   REMARKS
KAHULUI        MOCLDY    72  66  81 NE14      30.05F
KAPALUA-W MAUI NOT AVBL
HANA AIRPORT   CLOUDY    70  68  94 CALM      30.09F
HANA*            N/A     70 N/A N/A S3          N/A
HALEAKALA SUMM   N/A     37  34  87 NE7G33      N/A
MAALAEA BAY*   NOT AVBL
HALEAKALA*     NOT AVBL
KAUPO GAP*     NOT AVBL
KULA 1*          N/A     48  48 100 E6          N/A
$$

HIZ023>026-281300-
BIG ISLAND OF HAWAII COAST AND LOWER SLOPES-

CITY           SKY/WX    TMP DP  RH WIND       PRES   REMARKS
KAILUA KONA    PTCLDY    74  65  73 NE7       30.00S
HILO           MOCLDY    70  65  84 SW6       30.06F
HONOKAA*       NOT AVBL
KAWAIHAE MWT*    N/A     75 N/A N/A NE6         N/A
KAWAIHAE*        N/A     75 N/A N/A VRB3        N/A
SOUTH POINT*     N/A     70 N/A N/A NE14G23     N/A
UPOLU AIRPORT*   N/A    N/A N/A N/A NE21G30     N/A
KAMUELA*       SUNNY     63  61  94 NE28      30.10F
HAKALAU*         N/A     50  50 100 W1          N/A
KALOKO-HONOKO*   N/A     70  64  83 NE6       29.99
PALI 2*          N/A     63  55  77 N12G18      N/A
KEALAKOMO*       N/A     75  61  60 NE12G22     N/A
KAUPULEHU*     NOT AVBL
KAPAPALA*        N/A     64  61  89 NW3         N/A
LOWER KAHUKU*    N/A     59  59 100 N3G10       N/A
PUHE CS*         N/A     73  66  78 NE3         N/A
PUHO CS*         N/A     71  71 100 E2          N/A
PTA KEAMUKU*     N/A     55  52  88 CALM        N/A
WAIKOLOA*      NOT AVBL
$$

HIZ027>028-281300-
BIG ISLAND OF HAWAII INTERIOR AND SUMMMITS-

CITY           SKY/WX    TMP DP  RH WIND       PRES   REMARKS
BRADSHAW FIELD CLOUDY    49  45  87 SE6       30.32F
MK VISITOR CEN NOT AVBL
MAUNA KEA*       N/A     32 -24   8 SE32        N/A  WCI  17
MAUNA LOA*       N/A    N/A N/A N/A MISG        N/A
MAUNA LOA 1*   NOT AVBL
PTA KIPUKA*      N/A     54  52  94 SE5         N/A
PTA RANGE 17*    N/A     55  50  82 SE10G20     N/A
PTA WEST*        N/A     72  68  88 SE10        N/A
NENE CABIN*      N/A     48 N/A N/A NE3         N/A
AHUMOA*        NOT AVBL
PTA PORTABLE*  NOT AVBL
PUU MALI*        N/A    N/A N/A N/A SE10G16     N/A
$$

HIC003-281300-
NORTHWEST ISLANDS-

CITY           SKY/WX    TMP DP  RH WIND       PRES   REMARKS
MIDWAY ISLAND  PTCLDY    66  61  82 E16       30.31F
MIDWAY NOS*    NOT AVBL
FRENCH FRIGATE NOT AVBL
$$

PHZ110>124-180-281300-
BUOY REPORTS

STATION/POSITION TIME  TEMP    WIND        PRES    WAVE   SWELL
                       AIR SEA DIR/SP/G            HT/PER HT/DIR
                 (UTC) (F)     (DEG/KT/KT) (MB)    (FT/S) (FT/D)
BUOY 51001       NOT AVBL
BUOY 51101       1200   72 75   70/ 23/ 27 1021.6F  13/11  10
BUOY 51100       1200   72 75   70/ 23/ 27 1021.5
BUOY 51002       1200   78 79   90/ 17/ 19 1015.1F   8/13   7/340
BUOY 51003       1200   77 79   70/ 19/ 21 1016.5F  11/10   8
BUOY 51004       1110   76 78   70/ 17/ 19 1015.3F   7/13   5/320
BARBERS PT BUOY  NOT AVBL
WAIMEA BAY BUOY  1200      77                N/A    11/12   7/350
KAILUA BAY BUOY  1200      77                N/A    12/12   7/360
LANAI BUOY       1200      77                N/A     3/12   2/310
BARBERS PT 2     1200      78                N/A     5/11   3/300
PAUWELA MAUI     1200      77                N/A    11/13   8/350
HILO             1200      77                N/A    10/11   7/360
KANEOHE BAY BUOY 1200      77                N/A    11/12   7/340
HANALEI KAUAI    1200      76                N/A    13/11   8/360
KAHULUI HARBOR   1200   74 77   20/ 12/ 15 1017.5F
HONOLULU HARBOR  1200   74 78   70/  3/  8 1017.9F
KILO NALU        NOT AVBL
HILO HARBOR      1200   72 77  250/  3/  4 1017.4F
MOKUOLOE         1200   75 78   70/ 18/ 25 1018.6S
NAWILIWILI       1200   73 77   40/ 14/ 18 1019.2F
WHOTS BUOY       NOT AVBL
BUOY 51028       NOT AVBL
$$

......................KEY........................................
  SKY/WX - SKY CONDITIONS/PRESENT WEATHER
  TMP    - TEMPERATURE IN FAHRENHEIT
  DWPT   - DEWPOINT IN FAHRENHEIT
  RH     - RELATIVE HUMIDITY IN PERCENT
  WIND   - DIRECTION AND SPEED /MPH FOR ISLANDS...KTS FOR BUOYS/
  PRES   - MEAN SEA LEVEL PRESSURE IN INCHES OF HG
  VSB    - VISIBILITY IN MILES
  HX     - HEAT INDEX
  WCI    - WIND CHILL INDEX
  VRB    - VARIABLE WIND DIRECTION
  N/A    - NOT AVAILABLE



USA.gov is the U.S. government's official web portal to all federal, state and local government web resources and services.